QPF
0.06 0.10 0.04 0.01 0.00 0.00 0.00 0.00 0.00 0.00 0.00 0.00 0.00 0.00 0.00 0.00 0.00 0.00 0.00 0.00 0.00 0.00 0.00 0.00 0.00 0.00 0.00 0.00 0.00 0.00 0.00 0.00 0.00 0.00 0.00 0.00 0.00 0.00 0.00 0.00 0.00 0.02 0.03
0.03 0.06 0.04 0.01 0.00 0.00 0.00 0.00 0.00 0.00 0.00 0.00 0.00 0.00 0.00 0.00 0.00 0.00 0.00 0.00 0.00 0.00 0.00 0.00 0.00 0.00 0.00 0.00 0.00 0.00 0.00 0.00 0.00 0.00 0.00 0.00 0.00 0.00 0.00 0.00 0.00 0.01 0.01
0.02 0.02 0.00 0.00 0.00 0.00 0.00 0.00 0.00 0.00 0.00 0.00 0.00 0.00 0.00 0.00 0.00 0.00 0.00 0.00 0.00 0.00 0.00 0.00 0.00 0.00 0.00 0.00 0.00 0.00 0.00 0.00 0.00 0.00 0.00 0.00 0.00 0.00 0.00 0.00 0.00 0.00 0.01
0.01 0.00 0.00 0.00 0.00 0.00 0.00 0.00 0.00 0.00 0.00 0.00 0.00 0.00 0.00 0.00 0.00 0.00 0.00 0.00 0.00 0.00 0.00 0.00 0.00 0.00 0.00 0.00 0.00 0.00 0.00 0.00 0.00 0.00 0.00 0.00 0.00 0.00 0.00 0.00 0.00 0.00 0.01
0.00 0.00 0.00 0.00 0.00 0.00 0.00 0.00 0.00 0.00 0.00 0.00 0.00 0.00 0.00 0.00 0.00 0.00 0.00 0.00 0.00 0.00 0.00 0.00 0.00 0.00 0.00 0.00 0.00 0.00 0.00 0.00 0.00 0.00 0.00 0.00 0.00 0.00 0.00 0.00 0.00 0.00 0.01
0.00 0.00 0.00 0.00 0.00 0.00 0.00 0.00 0.00 0.00 0.00 0.00 0.00 0.00 0.00 0.00 0.00 0.00 0.00 0.00 0.00 0.00 0.00 0.00 0.00 0.00 0.00 0.00 0.00 0.00 0.00 0.00 0.00 0.00 0.00 0.00 0.00 0.00 0.00 0.00 0.00 0.00 0.00
0.00 0.00 0.00 0.00 0.00 0.00 0.00 0.00 0.00 0.00 0.00 0.00 0.00 0.00 0.00 0.00 0.00 0.00 0.00 0.00 0.00 0.00 0.00 0.00 0.00 0.00 0.00 0.00 0.00 0.00 0.00 0.00 0.00 0.00 0.00 0.00 0.00 0.00 0.00 0.00 0.00 0.00 0.00
0.01 0.01 0.00 0.00 0.00 0.00 0.00 0.00 0.00 0.00 0.00 0.00 0.00 0.00 0.00 0.00 0.00 0.00 0.00 0.00 0.00 0.00 0.00 0.00 0.00 0.00 0.00 0.00 0.00 0.00 0.00 0.00 0.00 0.00 0.00 0.00 0.00 0.00 0.00 0.00 0.00 0.00 0.00
0.02 0.02 0.02 0.01 0.00 0.00 0.00 0.00 0.00 0.00 0.00 0.00 0.00 0.00 0.00 0.00 0.00 0.00 0.00 0.00 0.00 0.00 0.00 0.00 0.00 0.00 0.00 0.00 0.00 0.00 0.00 0.00 0.00 0.00 0.00 0.00 0.00 0.00 0.00 0.00 0.00 0.00 0.00
0.05 0.04 0.03 0.02 0.00 0.00 0.00 0.00 0.00 0.00 0.00 0.00 0.00 0.00 0.00 0.00 0.00 0.00 0.00 0.00 0.00 0.00 0.00 0.00 0.00 0.00 0.00 0.00 0.00 0.00 0.00 0.00 0.00 0.00 0.00 0.00 0.00 0.00 0.00 0.00 0.00 0.00 0.00
0.02 0.01 0.02 0.02 0.01 0.00 0.00 0.00 0.00 0.00 0.00 0.00 0.00 0.00 0.00 0.00 0.00 0.00 0.00 0.00 0.00 0.00 0.00 0.00 0.00 0.00 0.00 0.00 0.00 0.00 0.00 0.00 0.00 0.00 0.00 0.00 0.00 0.00 0.00 0.00 0.00 0.00 0.00
0.01 0.00 0.01 0.02 0.01 0.00 0.00 0.00 0.00 0.00 0.00 0.00 0.00 0.00 0.00 0.00 0.00 0.00 0.00 0.00 0.00 0.00 0.00 0.00 0.00 0.00 0.00 0.00 0.00 0.00 0.00 0.00 0.00 0.00 0.00 0.00 0.00 0.00 0.00 0.00 0.00 0.00 0.00
0.00 0.00 0.00 0.00 0.00 0.00 0.00 0.00 0.00 0.00 0.00 0.00 0.00 0.00 0.00 0.00 0.00 0.00 0.00 0.00 0.00 0.00 0.00 0.00 0.00 0.00 0.00 0.00 0.00 0.00 0.00 0.00 0.00 0.00 0.00 0.00 0.00 0.00 0.00 0.00 0.00 0.00 0.00
0.00 0.00 0.00 0.00 0.00 0.00 0.00 0.00 0.00 0.00 0.00 0.00 0.00 0.00 0.00 0.00 0.00 0.00 0.00 0.00 0.00 0.00 0.00 0.00 0.00 0.00 0.00 0.00 0.00 0.00 0.00 0.00 0.01 0.00 0.00 0.00 0.00 0.00 0.00 0.00 0.00 0.00 0.00
0.00 0.00 0.00 0.00 0.00 0.00 0.00 0.00 0.00 0.00 0.00 0.00 0.00 0.00 0.00 0.00 0.00 0.00 0.00 0.00 0.00 0.00 0.00 0.00 0.00 0.00 0.00 0.00 0.00 0.00 0.00 0.00 0.01 0.01 0.00 0.00 0.00 0.00 0.00 0.00 0.00 0.00 0.00
0.00 0.00 0.00 0.00 0.00 0.00 0.00 0.00 0.00 0.00 0.00 0.00 0.00 0.00 0.00 0.00 0.00 0.00 0.00 0.00 0.00 0.00 0.00 0.00 0.00 0.00 0.00 0.00 0.00 0.00 0.00 0.01 0.01 0.01 0.01 0.00 0.00 0.00 0.00 0.00 0.00 0.00 0.00
0.00 0.00 0.00 0.00 0.00 0.00 0.00 0.00 0.00 0.00 0.00 0.00 0.00 0.00 0.00 0.00 0.00 0.00 0.00 0.00 0.00 0.00 0.00 0.00 0.00 0.00 0.00 0.00 0.00 0.00 0.00 0.00 0.01 0.01 0.01 0.00 0.00 0.00 0.00 0.00 0.00 0.00 0.00
0.00 0.00 0.00 0.00 0.00 0.00 0.00 0.00 0.00 0.00 0.00 0.00 0.00 0.00 0.00 0.00 0.00 0.00 0.00 0.00 0.00 0.00 0.00 0.00 0.00 0.00 0.00 0.00 0.00 0.01 0.01 0.01 0.01 0.01 0.01 0.00 0.01 0.00 0.00 0.00 0.00 0.01 0.00
0.00 0.00 0.00 0.00 0.00 0.00 0.00 0.00 0.00 0.00 0.00 0.00 0.00 0.00 0.00 0.00 0.00 0.00 0.00 0.00 0.00 0.00 0.00 0.00 0.00 0.00 0.00 0.00 0.00 0.00 0.00 0.01 0.01 0.01 0.01 0.01 0.01 0.01 0.00 0.00 0.00 0.00 0.00
0.00 0.00 0.00 0.00 0.00 0.00 0.00 0.00 0.00 0.00 0.00 0.00 0.00 0.00 0.00 0.00 0.00 0.00 0.00 0.00 0.00 0.00 0.00 0.00 0.00 0.00 0.00 0.00 0.00 0.00 0.00 0.00 0.01 0.01 0.01 0.01 0.01 0.01 0.01 0.01 0.01 0.01 0.00
0.00 0.00 0.00 0.00 0.00 0.00 0.00 0.00 0.00 0.00 0.00 0.00 0.00 0.00 0.00 0.00 0.00 0.00 0.00 0.00 0.00 0.00 0.00 0.00 0.00 0.00 0.00 0.00 0.00 0.00 0.00 0.00 0.00 0.01 0.01 0.01 0.01 0.01 0.01 0.01 0.00 0.00 0.00
0.00 0.00 0.00 0.00 0.00 0.00 0.00 0.00 0.00 0.00 0.00 0.00 0.00 0.00 0.00 0.00 0.00 0.00 0.00 0.00 0.00 0.00 0.00 0.00 0.00 0.00 0.00 0.00 0.00 0.00 0.00 0.00 0.00 0.01 0.01 0.01 0.01 0.01 0.01 0.01 0.01 0.01 0.01
0.00 0.00 0.00 0.00 0.00 0.00 0.00 0.00 0.00 0.00 0.00 0.00 0.00 0.00 0.00 0.00 0.00 0.00 0.00 0.00 0.00 0.00 0.00 0.00 0.00 0.00 0.00 0.00 0.00 0.00 0.00 0.00 0.00 0.00 0.01 0.01 0.01 0.01 0.01 0.00 0.00 0.00 0.01
0.00 0.00 0.00 0.00 0.00 0.00 0.00 0.00 0.00 0.00 0.00 0.00 0.00 0.00 0.00 0.00 0.00 0.00 0.00 0.00 0.00 0.00 0.00 0.00 0.00 0.00 0.00 0.00 0.00 0.00 0.00 0.00 0.00 0.00 0.01 0.01 0.00 0.00 0.00 0.00 0.00 0.00 0.01
0.00 0.00 0.00 0.00 0.00 0.00 0.00 0.00 0.00 0.00 0.00 0.00 0.00 0.00 0.00 0.00 0.00 0.00 0.00 0.00 0.00 0.00 0.00 0.00 0.00 0.00 0.00 0.00 0.00 0.00 0.00 0.00 0.00 0.00 0.00 0.01 0.01 0.00 0.00 0.00 0.01 0.01 0.01
0.00 0.00 0.00 0.00 0.00 0.00 0.00 0.00 0.00 0.00 0.00 0.00 0.00 0.00 0.00 0.00 0.00 0.00 0.00 0.00 0.00 0.00 0.00 0.01 0.01 0.00 0.00 0.00 0.00 0.00 0.00 0.00 0.00 0.00 0.00 0.01 0.01 0.00 0.00 0.00 0.00 0.01 0.01
MSLP
1007.48 1007.84 1008.67 1009.36 1010.10 1010.96 1011.64 1012.46 1013.96 1014.96 1015.42 1015.72 1016.14 1016.28 1016.80 1017.37 1017.94 1018.03 1018.00 1018.30 1018.39 1018.66 1019.04 1018.93 1018.97 1018.86 1018.32 1017.96 1017.52 1016.95 1016.54 1016.26 1015.48 1014.58 1014.48 1014.15 1014.34 1013.74 1013.15 1012.54 1011.78 1011.40 1011.43
1007.19 1007.82 1008.63 1009.47 1010.26 1011.04 1011.88 1012.98 1014.09 1015.03 1015.51 1016.06 1016.26 1016.89 1016.40 1017.42 1018.18 1017.86 1017.95 1018.30 1018.52 1018.50 1018.83 1018.95 1018.80 1018.53 1018.65 1018.24 1017.48 1017.10 1016.74 1016.59 1016.07 1015.24 1014.56 1014.08 1013.71 1013.55 1013.24 1012.99 1011.96 1011.25 1011.06
1007.16 1007.96 1008.83 1009.66 1010.36 1011.21 1012.18 1013.26 1014.00 1014.74 1015.35 1016.04 1016.84 1016.69 1016.67 1017.73 1018.34 1018.04 1018.22 1018.44 1018.77 1018.94 1019.11 1019.29 1019.03 1018.72 1018.60 1018.29 1018.01 1017.38 1016.66 1016.09 1015.66 1014.95 1014.32 1013.81 1013.65 1013.15 1012.79 1012.73 1012.32 1011.25 1010.29
1007.61 1008.15 1009.13 1009.86 1010.62 1011.59 1012.54 1013.61 1014.37 1015.26 1015.67 1016.21 1016.16 1016.47 1017.31 1018.12 1018.23 1018.34 1018.31 1018.52 1018.78 1018.80 1019.05 1018.94 1018.96 1018.97 1018.86 1018.66 1018.06 1017.48 1017.02 1016.92 1015.96 1014.97 1013.95 1013.54 1013.37 1013.39 1013.51 1013.13 1012.28 1011.22 1011.54
1007.63 1008.28 1009.12 1009.94 1010.98 1011.96 1013.10 1014.23 1014.33 1015.23 1015.95 1016.20 1016.18 1016.93 1017.83 1018.19 1018.14 1018.70 1018.77 1018.77 1018.84 1019.15 1019.22 1019.03 1018.91 1019.10 1019.63 1019.52 1019.03 1018.19 1017.84 1017.22 1016.53 1015.30 1014.46 1013.93 1013.63 1014.59 1014.06 1013.68 1012.94 1012.04 1011.36
1007.62 1008.43 1009.24 1010.12 1011.31 1012.43 1013.27 1013.97 1014.81 1015.38 1015.91 1016.45 1016.86 1017.30 1017.69 1017.72 1018.76 1019.38 1019.49 1019.19 1019.09 1019.10 1019.00 1018.96 1018.78 1018.99 1019.16 1019.45 1019.00 1018.83 1018.82 1018.16 1017.81 1016.58 1015.37 1014.88 1014.95 1015.04 1014.74 1014.57 1013.87 1012.82 1012.23
1008.33 1008.93 1009.70 1010.44 1011.33 1012.45 1013.32 1014.34 1015.23 1015.66 1016.10 1016.62 1017.34 1017.92 1018.28 1018.78 1019.49 1019.96 1019.90 1019.66 1019.35 1018.95 1018.70 1018.78 1018.70 1018.16 1018.87 1018.95 1018.68 1018.40 1018.33 1018.22 1018.14 1018.01 1017.06 1016.58 1016.50 1016.38 1016.48 1015.20 1014.50 1014.13 1012.90
1009.37 1009.79 1010.51 1011.26 1011.99 1012.98 1013.84 1014.98 1016.05 1016.70 1017.01 1017.58 1017.96 1018.06 1018.78 1019.31 1019.69 1019.74 1019.96 1019.48 1019.08 1018.89 1018.78 1018.78 1018.40 1018.09 1017.92 1018.62 1018.85 1018.13 1017.80 1017.34 1017.40 1017.58 1017.26 1016.90 1017.03 1017.06 1016.88 1016.07 1015.36 1014.40 1013.15
1011.03 1011.48 1011.95 1012.46 1013.32 1014.48 1015.32 1016.46 1017.42 1017.96 1018.51 1018.66 1018.99 1019.22 1019.03 1019.69 1020.18 1019.83 1019.64 1019.42 1018.66 1018.65 1018.42 1018.33 1018.56 1018.22 1017.85 1017.64 1018.66 1018.29 1017.56 1017.11 1016.75 1017.52 1017.68 1017.51 1017.29 1017.12 1016.89 1016.18 1014.69 1013.42 1012.12
1013.11 1013.82 1014.57 1014.86 1015.65 1016.01 1016.28 1016.80 1017.59 1017.80 1018.64 1019.14 1019.35 1019.72 1019.58 1019.52 1019.66 1019.65 1019.97 1019.43 1018.83 1018.24 1017.96 1017.77 1017.66 1017.90 1018.16 1018.00 1018.32 1018.15 1017.60 1017.11 1017.23 1017.33 1017.31 1017.00 1016.82 1016.38 1016.03 1015.72 1014.46 1013.24 1012.18
1014.30 1015.01 1015.75 1016.38 1016.28 1017.43 1018.11 1018.15 1018.96 1018.79 1018.84 1019.25 1019.23 1018.86 1019.09 1019.26 1019.42 1019.68 1019.89 1019.64 1018.78 1018.21 1017.88 1017.49 1017.31 1018.13 1018.61 1018.36 1018.40 1018.16 1017.36 1017.35 1016.96 1016.60 1016.13 1016.14 1016.05 1015.23 1014.05 1013.37 1013.22 1012.95 1012.19
1015.75 1016.03 1017.46 1017.57 1017.41 1018.44 1018.52 1019.29 1018.60 1019.60 1019.36 1019.13 1018.94 1018.67 1018.57 1018.69 1018.80 1019.26 1019.70 1019.98 1019.79 1019.20 1018.38 1017.92 1017.82 1018.25 1018.19 1018.10 1018.36 1017.78 1017.60 1017.66 1017.00 1015.98 1015.46 1015.57 1015.49 1014.94 1014.38 1014.09 1013.41 1013.16 1012.75
1016.79 1017.40 1017.61 1018.77 1018.06 1019.39 1018.67 1019.10 1018.88 1018.81 1018.94 1018.65 1018.19 1017.90 1017.87 1018.42 1018.92 1019.28 1019.67 1020.05 1019.81 1019.46 1018.77 1018.41 1018.47 1018.08 1017.66 1017.50 1017.12 1017.12 1017.06 1016.34 1015.75 1015.47 1014.97 1015.02 1014.99 1014.76 1014.82 1014.43 1013.54 1012.84 1012.66
1017.75 1018.32 1017.86 1018.33 1019.56 1019.10 1018.71 1018.58 1018.76 1019.28 1019.18 1018.71 1018.77 1018.88 1018.74 1018.82 1018.94 1019.14 1019.48 1019.43 1019.52 1019.09 1018.60 1018.28 1018.25 1017.89 1017.22 1016.91 1016.50 1016.07 1015.62 1015.18 1015.14 1015.03 1014.63 1014.56 1014.56 1014.60 1014.50 1014.02 1013.11 1012.52 1011.78
1018.70 1018.78 1018.87 1018.32 1018.19 1019.14 1019.22 1019.25 1018.89 1019.50 1020.15 1019.88 1019.50 1019.79 1019.52 1019.14 1019.44 1020.38 1020.30 1019.85 1019.87 1019.24 1019.26 1018.18 1016.71 1016.07 1015.83 1015.77 1015.61 1015.60 1015.62 1015.08 1015.22 1014.97 1014.49 1014.18 1014.24 1014.16 1013.95 1013.50 1012.63 1012.16 1011.68
1019.31 1019.15 1018.84 1017.86 1018.83 1019.45 1018.82 1018.63 1019.56 1019.92 1020.48 1020.54 1020.54 1020.58 1020.19 1020.36 1020.42 1020.30 1020.17 1020.28 1020.16 1019.54 1018.28 1017.38 1016.04 1015.70 1015.93 1015.74 1015.79 1015.78 1015.37 1014.94 1014.98 1014.76 1014.44 1014.20 1014.12 1013.80 1013.56 1013.10 1012.41 1011.90 1011.49
1020.01 1019.52 1019.52 1018.95 1018.73 1018.84 1018.72 1018.98 1018.60 1019.36 1019.66 1020.06 1020.24 1020.24 1020.35 1020.35 1020.40 1020.29 1020.01 1019.69 1019.22 1018.30 1017.39 1016.56 1015.98 1015.88 1015.77 1015.76 1015.64 1015.75 1015.24 1014.90 1014.61 1014.64 1014.36 1014.02 1013.83 1013.55 1013.38 1012.85 1012.09 1011.58 1010.95
1020.20 1020.38 1019.74 1019.18 1019.02 1019.38 1019.02 1018.68 1018.61 1018.91 1019.07 1019.26 1019.69 1019.94 1019.92 1020.07 1019.80 1019.54 1019.14 1018.68 1017.20 1016.98 1016.63 1016.25 1015.66 1015.89 1015.50 1015.33 1015.29 1015.20 1014.83 1014.92 1014.43 1014.39 1014.02 1013.71 1013.48 1013.26 1012.99 1012.56 1011.79 1011.21 1010.83
1020.87 1020.81 1020.28 1019.69 1019.66 1019.80 1019.32 1019.04 1018.72 1018.54 1018.65 1018.92 1019.13 1019.15 1019.24 1019.56 1019.14 1018.44 1018.22 1017.85 1017.29 1016.76 1016.28 1015.92 1015.49 1015.63 1015.26 1014.93 1014.91 1014.92 1014.96 1014.42 1014.53 1014.24 1013.87 1013.54 1013.23 1012.98 1012.70 1012.23 1011.56 1011.15 1010.88
1021.32 1021.97 1021.31 1020.28 1019.83 1019.71 1019.56 1019.10 1019.01 1018.86 1018.38 1018.67 1019.02 1019.24 1019.48 1019.14 1018.20 1017.74 1017.60 1017.30 1016.90 1016.36 1015.83 1015.78 1015.59 1015.40 1015.02 1014.82 1014.68 1014.66 1014.30 1013.96 1014.02 1013.46 1013.47 1013.06 1012.90 1012.75 1012.46 1011.96 1011.39 1010.86 1010.32
1021.59 1021.13 1021.43 1020.60 1020.31 1020.33 1020.01 1019.78 1019.38 1019.09 1018.78 1018.73 1018.99 1019.12 1019.52 1019.32 1018.50 1017.90 1017.20 1017.05 1016.62 1016.19 1015.95 1015.74 1015.48 1015.06 1014.67 1014.45 1014.51 1014.20 1013.97 1013.52 1013.42 1013.29 1013.13 1012.87 1012.63 1012.37 1012.01 1011.69 1011.26 1010.84 1010.28
1021.98 1021.68 1021.58 1021.36 1021.19 1021.17 1021.02 1020.10 1019.72 1019.31 1018.99 1018.62 1018.43 1018.74 1019.18 1018.71 1018.14 1017.65 1017.35 1016.93 1016.48 1016.18 1015.86 1015.60 1015.32 1014.79 1014.41 1014.27 1014.16 1013.81 1013.59 1013.35 1012.96 1012.66 1012.82 1012.44 1012.23 1011.79 1011.73 1011.37 1011.08 1010.70 1010.32
1022.57 1022.21 1021.86 1021.55 1021.55 1021.67 1020.84 1020.42 1020.00 1019.78 1019.42 1019.00 1018.86 1019.01 1018.83 1018.68 1018.25 1017.75 1017.20 1016.77 1016.34 1015.93 1015.55 1015.20 1014.72 1014.28 1014.00 1013.78 1013.69 1013.49 1013.24 1012.98 1012.60 1012.38 1012.69 1012.07 1011.98 1011.58 1011.27 1011.10 1010.86 1010.53 1010.27
1023.50 1022.97 1022.57 1022.27 1022.19 1022.01 1021.56 1021.24 1020.78 1020.38 1020.05 1019.62 1019.54 1019.59 1019.16 1018.61 1018.03 1017.46 1017.02 1016.48 1015.95 1015.41 1014.94 1014.59 1014.22 1013.85 1013.55 1013.28 1013.01 1012.91 1012.66 1012.40 1012.25 1012.30 1012.09 1012.11 1011.77 1011.35 1011.11 1010.92 1010.70 1010.37 1010.13
1024.32 1023.82 1023.42 1023.15 1022.90 1022.64 1022.34 1021.96 1021.56 1021.10 1020.58 1020.13 1019.93 1019.58 1019.05 1018.50 1017.86 1017.28 1016.74 1016.13 1015.61 1015.12 1014.57 1014.10 1013.67 1013.24 1012.87 1012.52 1012.30 1012.17 1012.08 1012.24 1012.42 1012.39 1012.22 1012.08 1011.28 1011.12 1010.86 1010.60 1010.44 1010.22 1010.04
1024.80 1024.49 1024.21 1024.04 1023.76 1023.43 1023.13 1022.69 1022.14 1021.55 1020.96 1020.50 1020.05 1019.73 1019.12 1018.47 1017.80 1017.23 1016.56 1015.96 1015.45 1014.90 1014.26 1013.52 1013.03 1012.83 1012.45 1011.86 1011.38 1011.33 1011.42 1011.56 1011.71 1011.85 1011.84 1011.72 1011.21 1010.54 1010.37 1010.16 1010.52 1010.25 1009.73
Thickness
5739 5737 5731 5725 5719 5711 5704 5697 5683 5674 5669 5665 5659 5656 5651 5645 5639 5639 5640 5635 5632 5628 5621 5621 5618 5618 5620 5622 5625 5628 5629 5628 5628 5635 5635 5636 5630 5634 5636 5638 5643 5643 5641
5729 5725 5717 5711 5704 5697 5689 5680 5669 5660 5654 5645 5644 5636 5641 5633 5626 5631 5629 5624 5620 5618 5612 5608 5609 5611 5607 5610 5615 5616 5616 5614 5613 5615 5620 5621 5620 5619 5619 5619 5625 5625 5626
5718 5710 5702 5695 5690 5683 5675 5666 5660 5651 5643 5633 5622 5626 5627 5621 5614 5620 5618 5614 5609 5605 5601 5597 5598 5600 5597 5599 5600 5602 5606 5607 5606 5608 5609 5608 5605 5607 5607 5605 5606 5612 5618
5700 5696 5687 5682 5676 5669 5662 5653 5646 5637 5628 5623 5620 5618 5613 5609 5608 5608 5609 5605 5599 5595 5591 5589 5587 5585 5584 5584 5587 5590 5590 5587 5591 5594 5597 5595 5591 5586 5580 5577 5583 5595 5593
5689 5683 5676 5670 5664 5657 5647 5637 5636 5626 5617 5614 5614 5609 5603 5601 5602 5595 5594 5592 5588 5582 5577 5576 5575 5572 5565 5564 5566 5571 5570 5570 5568 5571 5571 5570 5568 5555 5555 5557 5562 5571 5579
5678 5672 5667 5659 5650 5641 5635 5629 5620 5615 5609 5604 5602 5600 5597 5596 5584 5577 5574 5578 5574 5570 5567 5565 5564 5559 5555 5550 5551 5549 5543 5541 5536 5541 5546 5546 5539 5537 5538 5537 5540 5550 5555
5660 5657 5650 5644 5637 5629 5623 5616 5607 5602 5599 5596 5590 5582 5578 5575 5568 5561 5559 5560 5561 5560 5559 5555 5552 5554 5543 5539 5537 5533 5528 5522 5515 5510 5514 5513 5510 5506 5505 5516 5523 5526 5539
5640 5639 5630 5625 5621 5613 5606 5598 5589 5583 5581 5577 5572 5569 5562 5557 5554 5551 5546 5548 5548 5544 5542 5540 5542 5542 5538 5525 5515 5517 5514 5513 5508 5502 5499 5498 5494 5490 5487 5494 5503 5512 5526
5615 5613 5609 5605 5597 5586 5581 5571 5565 5561 5556 5554 5551 5547 5548 5539 5536 5537 5535 5532 5538 5534 5532 5529 5523 5524 5524 5523 5505 5501 5501 5499 5495 5486 5481 5478 5478 5478 5477 5482 5497 5510 5524
5584 5579 5572 5570 5564 5560 5560 5549 5552 5549 5541 5539 5534 5528 5528 5526 5526 5525 5519 5521 5524 5524 5522 5522 5518 5511 5502 5502 5493 5488 5487 5484 5476 5469 5466 5466 5465 5468 5472 5473 5487 5500 5513
5564 5557 5547 5543 5548 5538 5531 5533 5525 5528 5528 5522 5522 5525 5520 5515 5514 5510 5505 5506 5512 5514 5512 5510 5508 5496 5488 5485 5477 5473 5475 5468 5466 5463 5463 5457 5455 5463 5473 5478 5484 5492 5503
5540 5539 5527 5528 5523 5517 5518 5511 5511 5507 5510 5509 5510 5510 5510 5507 5506 5500 5495 5489 5488 5491 5494 5495 5490 5480 5478 5473 5462 5462 5457 5449 5450 5453 5452 5446 5445 5450 5456 5460 5471 5479 5488
5517 5515 5515 5499 5512 5499 5506 5505 5504 5504 5501 5502 5506 5506 5502 5496 5492 5488 5481 5475 5475 5476 5478 5476 5471 5471 5470 5465 5462 5455 5449 5449 5447 5443 5441 5435 5433 5436 5437 5446 5459 5472 5479
5488 5490 5495 5498 5484 5490 5491 5494 5493 5486 5489 5492 5487 5484 5483 5481 5480 5477 5472 5470 5465 5465 5466 5465 5461 5460 5462 5459 5456 5452 5449 5448 5441 5435 5431 5426 5425 5426 5430 5439 5453 5466 5479
5480 5483 5480 5486 5486 5477 5474 5474 5477 5470 5463 5467 5469 5463 5465 5467 5462 5452 5452 5454 5448 5451 5445 5453 5465 5467 5464 5458 5452 5444 5438 5439 5429 5424 5420 5419 5419 5422 5427 5436 5451 5462 5472
5465 5467 5471 5482 5471 5463 5470 5471 5459 5456 5449 5448 5447 5444 5447 5443 5441 5441 5439 5433 5431 5434 5443 5448 5460 5459 5452 5448 5439 5432 5431 5430 5422 5417 5412 5411 5411 5418 5425 5435 5447 5460 5469
5453 5457 5456 5462 5465 5464 5464 5460 5465 5454 5447 5441 5440 5439 5436 5433 5429 5427 5425 5423 5424 5431 5439 5445 5448 5445 5443 5437 5432 5423 5423 5422 5420 5411 5408 5408 5411 5416 5422 5433 5447 5458 5470
5451 5448 5453 5457 5458 5452 5454 5456 5454 5449 5445 5442 5435 5429 5426 5420 5419 5417 5417 5418 5433 5431 5433 5435 5440 5434 5435 5433 5428 5423 5421 5416 5415 5408 5407 5409 5413 5418 5423 5432 5445 5457 5465
5442 5442 5445 5447 5444 5439 5439 5440 5441 5442 5437 5430 5425 5422 5419 5411 5412 5416 5414 5415 5416 5420 5424 5426 5430 5426 5427 5429 5425 5419 5414 5413 5407 5405 5405 5407 5411 5417 5422 5431 5444 5448 5457
5435 5425 5429 5436 5436 5433 5430 5431 5428 5426 5428 5422 5415 5410 5404 5406 5411 5410 5407 5407 5409 5414 5419 5417 5418 5419 5421 5421 5419 5415 5413 5411 5406 5408 5404 5407 5409 5413 5419 5429 5440 5450 5460
5431 5433 5423 5429 5426 5419 5417 5413 5413 5412 5411 5409 5403 5400 5394 5394 5396 5398 5401 5398 5401 5405 5406 5407 5409 5412 5414 5415 5412 5410 5408 5409 5406 5403 5402 5404 5407 5411 5418 5426 5436 5444 5454
5422 5421 5416 5412 5408 5402 5398 5401 5401 5401 5400 5400 5399 5394 5386 5389 5390 5390 5388 5389 5392 5394 5396 5398 5400 5404 5406 5406 5405 5405 5404 5403 5403 5403 5400 5402 5405 5412 5416 5424 5431 5439 5448
5412 5409 5406 5403 5396 5388 5392 5390 5389 5386 5386 5387 5386 5381 5381 5378 5378 5379 5380 5381 5383 5385 5388 5392 5395 5398 5399 5399 5399 5398 5398 5397 5398 5399 5394 5399 5400 5407 5414 5420 5427 5435 5443
5398 5396 5393 5389 5384 5379 5378 5374 5374 5372 5372 5373 5370 5367 5369 5371 5373 5373 5373 5376 5379 5382 5385 5387 5389 5391 5392 5393 5394 5394 5393 5393 5393 5391 5391 5392 5396 5401 5408 5415 5422 5431 5440
5385 5383 5379 5375 5371 5367 5364 5361 5359 5359 5360 5361 5361 5362 5364 5365 5366 5367 5369 5372 5375 5376 5379 5381 5383 5385 5387 5389 5389 5389 5389 5386 5383 5382 5382 5384 5393 5397 5403 5410 5418 5427 5435
5375 5371 5367 5362 5357 5354 5350 5349 5349 5351 5353 5354 5355 5355 5357 5359 5360 5361 5364 5367 5368 5370 5374 5378 5380 5380 5381 5384 5387 5387 5385 5383 5379 5377 5377 5379 5387 5396 5401 5408 5411 5420 5433